Winner, SD

11:11 PM CDT on April 22, 2018 (GMT -0500)
Winner

Weather History for KICR - September, 2013

Change the Weather History Date:

Friday, September 13, 2013

  Actual Average Record
Temperature  
Mean Temperature 66 °F 65 °F  
Max Temperature 82 °F 79 °F 94 °F (2015)
Min Temperature 50 °F 52 °F 39 °F (2014)
Degree Days  
Heating Degree Days 0 3  
Month to date heating degree days 0 30  
Since 1 July heating degree days 7 44  
Cooling Degree Days 1 4  
Month to date cooling degree days 151 69  
Year to date cooling degree days 942 875  
Growing Degree Days 16 (Base 50)    
Moisture  
Dew Point 44 °F    
Average Humidity 50    
Maximum Humidity 77    
Minimum Humidity 23    
Precipitation  
Precipitation 0.00 in 0.07 in 0.20 in (2008)
Month to date precipitation 0.27 0.85  
Year to date precipitation 16.26 17.85  
Sea Level Pressure  
Sea Level Pressure 30.10 in    
Wind  
Wind Speed 10 mph (SSE)    
Max Wind Speed 20 mph    
Max Gust Speed 26 mph    
Visibility 10 miles    
Events      
T = Trace of Precipitation, MM = Missing Value Source: NWS Daily Summary

Daily Weather History Graph

Daily Weather History Graph

Search for Another Location

Airport or City:

Astronomy

Sep. 13, 2013 Rise Set
Actual Time 7:16 AM CDT 7:52 PM CDT
Civil Twilight 6:48 AM CDT 8:21 PM CDT
Nautical Twilight 6:14 AM CDT 8:55 PM CDT
Astronomical Twilight 5:38 AM CDT 9:30 PM CDT
Moon 3:51 PM CDT (9/13) 12:40 AM CDT (9/13)
Length of Visible Light 13h 33m
Length of Day
12h 35m
First Quarter, 61% of the Moon is Illuminated
Sep 13
First Quarter
Sep 19
Full
Sep 26
Last Quarter
Oct 4
New
Oct 11
First Quarter

Hourly Weather History & Observations

Time (CDT) Temp. Dew Point Humidity Pressure Visibility Wind Dir Wind Speed Gust Speed Precip Events Conditions
12:53 AM 59.0 °F 44.1 °F 58% 30.21 in 10.0 mi SSE 8.1 mph - N/A   Clear
1:53 AM 57.0 °F 44.1 °F 62% 30.21 in 10.0 mi SE 8.1 mph - N/A   Clear
2:53 AM 57.9 °F 43.0 °F 58% 30.20 in 10.0 mi SE 8.1 mph - N/A   Clear
3:53 AM 53.1 °F 43.0 °F 69% 30.19 in 10.0 mi SSE 4.6 mph - N/A   Clear
4:53 AM 54.0 °F 42.1 °F 64% 30.19 in 10.0 mi Calm Calm - N/A   Clear
5:53 AM 53.1 °F 43.0 °F 69% 30.18 in 10.0 mi ESE 4.6 mph - N/A   Clear
6:53 AM 51.1 °F 43.0 °F 74% 30.19 in 10.0 mi SSE 5.8 mph - N/A   Clear
7:53 AM 52.0 °F 44.1 °F 74% 30.19 in 10.0 mi SSE 3.5 mph - N/A   Clear
8:53 AM 61.0 °F 48.0 °F 62% 30.18 in 10.0 mi South 6.9 mph - N/A   Clear
9:53 AM 68.0 °F 48.0 °F 49% 30.17 in 10.0 mi South 6.9 mph - N/A   Clear
10:53 AM 73.0 °F 44.1 °F 35% 30.16 in 10.0 mi South 15.0 mph - N/A   Clear
11:53 AM 75.0 °F 43.0 °F 32% 30.14 in 10.0 mi SSE 11.5 mph 20.7 mph N/A   Clear
12:53 PM 78.1 °F 41.0 °F 27% 30.11 in 10.0 mi South 15.0 mph 20.7 mph N/A   Clear
1:53 PM 77.0 °F 39.9 °F 26% 30.08 in 10.0 mi SSE 15.0 mph - N/A   Clear
2:53 PM 80.1 °F 39.0 °F 23% 30.05 in 10.0 mi SSE 16.1 mph 19.6 mph N/A   Clear
3:53 PM 79.0 °F 42.1 °F 27% 30.03 in 10.0 mi SSE 13.8 mph 24.2 mph N/A   Clear
4:53 PM 79.0 °F 42.1 °F 27% 30.01 in 10.0 mi SSE 12.7 mph - N/A   Clear
5:53 PM 81.0 °F 43.0 °F 26% 29.99 in 10.0 mi South 16.1 mph 21.9 mph N/A   Clear
6:53 PM 75.9 °F 46.0 °F 35% 29.99 in 10.0 mi South 13.8 mph - N/A   Partly Cloudy
7:53 PM 72.0 °F 46.0 °F 40% 29.98 in 10.0 mi South 11.5 mph - N/A   Partly Cloudy
8:53 PM 66.9 °F 46.9 °F 49% 29.98 in 10.0 mi SSE 6.9 mph - N/A   Clear
9:53 PM 66.0 °F 46.0 °F 48% 29.97 in 10.0 mi SSE 11.5 mph - N/A   Clear
10:53 PM 64.0 °F 46.9 °F 54% 29.96 in 10.0 mi SSE 5.8 mph - N/A   Clear
11:53 PM 66.9 °F 48.0 °F 51% 29.95 in 10.0 mi South 16.1 mph - N/A   Mostly Cloudy